| time (UTC) | temp C | wind direction | speed KPH | gust KPH | rain 1hr cm | rain 24hr cm | rain mn cm | humidity % | barometer mb |
| 20260504044540 | 6 | 243 | 8.0 | 20.9 | 0.08 | 0.28 | 0.28 | 75 | 1014.6 |
| 20260504043015 | 6 | 244 | 9.7 | 25.7 | 0.03 | 0.23 | 0.23 | 76 | 1014.9 |
| 20260504041516 | 6 | 236 | 11.3 | 19.3 | 0.03 | 0.23 | 0.23 | 75 | 1014.9 |
| 20260504040105 | 6 | 240 | 9.7 | 24.1 | 0.03 | 0.23 | 0.23 | 75 | 1014.8 |
| 20260504034605 | 6 | 240 | 11.3 | 22.5 | 0.00 | 0.20 | 0.20 | 75 | 1014.6 |
| 20260504033048 | 6 | 233 | 11.3 | 19.3 | 0.00 | 0.20 | 0.20 | 75 | 1014.3 |
| 20260504031537 | 6 | 238 | 9.7 | 22.5 | 0.05 | 0.20 | 0.20 | 75 | 1014.3 |
| 20260504030036 | 5 | 237 | 8.0 | 17.7 | 0.10 | 0.20 | 0.20 | 75 | 1014.6 |
| 20260504024517 | 5 | 232 | 11.3 | 19.3 | 0.15 | 0.20 | 0.20 | 75 | 1014.7 |
| 20260504023116 | 5 | 232 | 12.9 | 24.1 | 0.18 | 0.20 | 0.20 | 74 | 1015.1 |
| 20260504021557 | 5 | 244 | 8.0 | 25.7 | 0.15 | 0.15 | 0.15 | 73 | 1015.3 |
| 20260504020101 | 6 | 234 | 12.9 | 22.5 | 0.10 | 0.10 | 0.10 | 72 | 1015.3 |
| 20260504014547 | 6 | 250 | 16.1 | 29.0 | 0.05 | 0.05 | 0.05 | 72 | 1015.2 |
| 20260504013045 | 7 | 240 | 17.7 | 27.4 | 0.03 | 0.03 | 0.03 | 73 | 1015.3 |
| 20260504011521 | 7 | 226 | 11.3 | 20.9 | 0.00 | 0.00 | 0.00 | 72 | 1015.1 |
| 20260504010022 | 7 | 200 | 4.8 | 12.9 | 0.00 | 0.00 | 0.00 | 71 | 1014.9 |
| 20260504004507 | 7 | 222 | 3.2 | 11.3 | 0.00 | 0.00 | 0.00 | 67 | 1014.9 |
| 20260504003005 | 7 | 216 | 3.2 | 8.0 | 0.00 | 0.00 | 0.00 | 63 | 1014.8 |
| 20260504001544 | 7 | 242 | 8.0 | 16.1 | 0.00 | 0.00 | 0.00 | 61 | 1015.0 |
| 20260504000044 | 7 | 234 | 9.7 | 19.3 | 0.00 | 0.00 | 0.00 | 60 | 1015.0 |
| 20260503234536 | 7 | 254 | 12.9 | 20.9 | 0.00 | 0.00 | 0.00 | 53 | 1015.0 |
| 20260503233024 | 7 | 250 | 12.9 | 19.3 | 0.00 | 0.00 | 0.00 | 51 | 1015.1 |
| 20260503231506 | 7 | 246 | 11.3 | 17.7 | 0.00 | 0.00 | 0.00 | 49 | 1015.1 |
| 20260503230006 | 7 | 240 | 9.7 | 19.3 | 0.00 | 0.00 | 0.00 | 48 | 1015.1 |
| 20260503224547 | 8 | 251 | 8.0 | 19.3 | 0.00 | 0.00 | 0.00 | 45 | 1015.1 |
| 20260503223051 | 8 | 282 | 11.3 | 19.3 | 0.00 | 0.00 | 0.00 | 46 | 1015.1 |
| 20260503221528 | 8 | 261 | 12.9 | 32.2 | 0.00 | 0.00 | 0.00 | 46 | 1015.2 |
| 20260503220029 | 8 | 275 | 9.7 | 29.0 | 0.00 | 0.00 | 0.00 | 46 | 1015.3 |
| 20260503214513 | 8 | 265 | 19.3 | 32.2 | 0.00 | 0.00 | 0.00 | 44 | 1015.2 |
| 20260503213009 | 8 | 305 | 20.9 | 37.0 | 0.00 | 0.00 | 0.00 | 42 | 1015.2 |
| 20260503211549 | 8 | 292 | 16.1 | 30.6 | 0.00 | 0.00 | 0.00 | 42 | 1015.3 |
| 20260503210055 | 8 | 255 | 19.3 | 29.0 | 0.00 | 0.00 | 0.00 | 47 | 1015.4 |
| 20260503204546 | 7 | 230 | 16.1 | 29.0 | 0.00 | 0.00 | 0.00 | 49 | 1015.6 |
| 20260503203032 | 8 | 259 | 24.1 | 40.2 | 0.00 | 0.00 | 0.00 | 46 | 1015.9 |
| 20260503201532 | 8 | 255 | 25.7 | 40.2 | 0.00 | 0.00 | 0.00 | 46 | 1015.9 |
| 20260503200031 | 8 | 315 | 24.1 | 35.4 | 0.00 | 0.00 | 0.00 | 47 | 1015.9 |
| 20260503194532 | 8 | 263 | 24.1 | 33.8 | 0.00 | 0.00 | 0.00 | 48 | 1016.1 |
| 20260503193035 | 8 | 297 | 19.3 | 40.2 | 0.00 | 0.00 | 0.00 | 50 | 1016.3 |
| 20260503191525 | 7 | 311 | 17.7 | 32.2 | 0.00 | 0.00 | 0.00 | 49 | 1016.4 |
| 20260503190027 | 7 | 219 | 17.7 | 30.6 | 0.00 | 0.00 | 0.00 | 45 | 1016.8 |
| 20260503184519 | 7 | 237 | 19.3 | 32.2 | 0.00 | 0.00 | 0.00 | 43 | 1016.7 |
| 20260503183006 | 7 | 242 | 19.3 | 35.4 | 0.00 | 0.00 | 0.00 | 44 | 1016.8 |
| 20260503181506 | 7 | 252 | 22.5 | 40.2 | 0.00 | 0.00 | 0.00 | 43 | 1016.9 |
| 20260503180012 | 7 | 249 | 16.1 | 29.0 | 0.00 | 0.00 | 0.00 | 46 | 1016.9 |
| 20260503174502 | 7 | 278 | 17.7 | 32.2 | 0.00 | 0.00 | 0.00 | 47 | 1017.0 |
| 20260503173001 | 7 | 229 | 14.5 | 30.6 | 0.00 | 0.00 | 0.00 | 47 | 1017.2 |
| 20260503171600 | 7 | 290 | 17.7 | 33.8 | 0.00 | 0.00 | 0.00 | 49 | 1017.3 |
| 20260503100106 | 1 | 233 | 0.0 | 0.0 | 0.00 | 0.03 | 0.03 | 73 | 1017.9 |
| 20260503081545 | 2 | 238 | 0.0 | 0.0 | 0.00 | 0.03 | 0.03 | 73 | 1018.4 |
| 20260503071532 | 2 | 227 | 0.0 | 0.0 | 0.00 | 0.03 | 0.03 | 73 | 1018.2 |
| 20260503054509 | 2 | 243 | 0.0 | 0.0 | 0.00 | 0.03 | 0.03 | 74 | 1018.6 |